This demonstration page uses our WeatherBlox Daily Observations layout. Learn more.

36.17497, -115.13722

Hourly Observations for July 4, 2016

Temp ( °F °C ) Dew Point ( °F °C ) Humidity (%) Winds ( mph kmh ) Pressure ( in mb ) Visibility ( mi km ) Precip ( " mm )
12:53 am 00:53 Clear 89 31.7 41 5 19 19 N 3 6 29.74 1007 10 16.09344 0 0
1:53 am 01:53 Clear 85 29.4 43 6.1 23 23 N 3 6 29.77 1008 10 16.09344 0 0
2:53 am 02:53 Clear 83 28.3 45 7.2 26 26 Calm 29.77 1008 10 16.09344 0 0
3:53 am 03:53 Clear 83 28.3 46 7.8 27 27 WNW 3 6 29.77 1008 10 16.09344 0 0
4:53 am 04:53 Clear 80 26.7 47 8.3 31 31 Calm 29.83 1010 10 16.09344 0 0
5:53 am 05:53 Sunny 82 27.8 47 8.3 29 29 NW 3 6 29.83 1010 10 16.09344 0 0
6:53 am 06:53 Sunny 83 28.3 49 9.4 31 31 NNW 3 6 29.8 1009 10 16.09344 0 0
7:53 am 07:53 Sunny 88 31.1 47 8.3 24 24 SE 7 11 29.83 1010 10 16.09344 0 0
8:53 am 08:53 Sunny 91 32.8 44 6.7 20 20 SSE 8 13 29.8 1009 10 16.09344 0 0
9:53 am 09:53 Sunny 94 34.4 48 8.9 21 21 S 9 15 29.8 1009 10 16.09344 0 0
10:53 am 10:53 Sunny 97 36.1 47 8.3 18 18 S 14 22 29.77 1008 10 16.09344 0 0
11:53 am 11:53 Sunny 100 37.8 41 5 13 13 SE 9 15 29.74 1007 10 16.09344 0 0
12:38 pm 12:38 Sunny 102 39 37 3 11 11 S 16 26 29.71 1006 10 16.09344 0 0
12:53 pm 12:53 Sunny 102 38.9 36 2.2 10 10 SSW 14 22 29.71 1006 10 16.09344 0 0
1:53 pm 13:53 Sunny 105 40.6 34 1.1 8 8 SW 16 26 29.65 1004 10 16.09344 0 0
2:53 pm 14:53 Sunny 105 40.6 31 -0.6 7 7 SW 17 28 29.65 1004 10 16.09344 0 0
3:53 pm 15:53 Sunny 105 40.6 30 -1.1 7 7 W 20 31 29.62 1003 10 16.09344 0 0
4:53 pm 16:53 Sunny 104 40 30 -1.1 7 7 SW 15 24 29.59 1002 10 16.09344 0 0
5:12 pm 17:12 Sunny 104 40 28 -2 7 7 WSW 16 26 29.59 1002 10 16.09344 0 0
5:53 pm 17:53 Sunny 103 39.4 29 -1.7 7 7 W 14 22 29.59 1002 10 16.09344 0 0
6:53 pm 18:53 Sunny 102 38.9 27 -2.8 7 7 W 14 22 29.62 1003 10 16.09344 0 0
7:53 pm 19:53 Sunny 100 37.8 25 -3.9 7 7 WSW 12 19 29.62 1003 10 16.09344 0 0
8:53 pm 20:53 Clear 97 36.1 28 -2.2 9 9 SW 8 13 29.62 1003 10 16.09344 0 0
9:53 pm 21:53 Clear 95 35 28 -2.2 9 9 SW 7 11 29.62 1003 9 14.484096 0 0
10:53 pm 22:53 Clear 93 33.9 29 -1.7 10 10 WSW 6 9 29.65 1004 9 14.484096 0 0
11:53 pm 23:53 Clear 91 32.8 31 -0.6 12 12 SW 10 17 29.68 1005 10 16.09344 0 0

Powered by AerisWeather